Wind_Speed
4 7 8 6 10 10 6 4 4 12 9 11 11 12 10 9 10 12 12 11 9 8 5 7 8 9 9 11 12 14 17 17 20 21 21 24 26 24 28 26 24 26 25 24
6 10 11 8 8 13 13 13 12 13 5 5 7 7 7 11 11 14 12 11 9 8 7 7 10 8 11 13 15 16 17 17 20 22 21 24 26 29 30 26 26 26 26 26
2 3 6 5 3 7 5 5 15 7 6 10 7 6 5 10 13 13 12 9 7 9 9 9 9 11 15 15 15 17 16 18 20 22 18 24 28 32 29 29 29 28 28 29
3 3 3 5 5 9 14 8 14 16 13 11 12 10 12 8 15 12 11 8 10 12 10 10 16 17 15 16 16 16 16 17 19 22 15 23 28 30 30 31 32 28 28 30
4 3 1 3 4 8 8 3 16 15 15 16 15 16 9 8 11 11 12 16 16 12 13 15 16 15 15 15 16 18 17 19 19 22 14 22 25 28 28 31 33 29 28 31
3 5 6 7 5 13 9 3 8 19 18 19 8 4 4 6 13 14 20 17 13 15 13 15 14 13 15 14 14 16 17 19 19 19 14 22 23 27 26 27 32 30 31 32
3 2 4 1 11 4 5 5 8 12 14 6 4 3 11 13 11 19 18 15 20 18 19 16 14 13 13 12 13 14 15 17 19 18 16 23 22 25 24 28 35 31 29 30
3 4 1 3 4 6 6 6 9 8 9 17 17 16 13 13 14 17 18 20 21 22 18 14 11 12 12 16 14 11 17 18 19 19 19 22 22 24 25 28 34 27 28 30
2 3 3 3 6 11 13 14 8 17 14 19 17 15 13 10 13 16 21 19 20 20 17 14 14 14 16 17 15 12 17 18 21 20 21 22 23 24 24 28 27 25 26 28
4 6 8 15 13 11 13 16 15 17 17 16 18 14 12 12 13 17 19 20 20 18 15 13 11 13 14 14 15 16 16 17 22 21 22 23 24 25 23 25 27 27 27 28
6 6 13 7 11 16 17 17 18 20 19 17 17 13 13 15 17 19 21 19 17 17 15 12 12 13 14 13 13 14 16 17 20 21 22 23 24 26 23 23 27 27 29 27
4 11 8 7 12 18 19 18 17 18 15 20 22 17 21 18 20 24 22 19 20 18 16 16 14 13 13 14 18 14 18 18 21 21 22 23 23 24 24 18 24 28 29 29
6 5 13 14 14 21 17 15 23 23 24 20 22 25 26 21 21 23 21 20 18 15 13 13 12 13 8 12 17 16 18 17 20 21 22 25 24 25 21 24 21 26 31 30
20 20 12 16 11 22 25 22 26 23 25 26 26 28 28 26 23 23 22 20 15 10 14 13 14 16 12 8 14 16 16 16 19 20 21 23 24 25 22 21 22 26 29 31
16 12 17 20 22 20 26 27 18 16 24 22 26 29 29 26 25 24 22 17 17 17 14 11 13 15 13 11 11 13 16 15 17 18 20 22 23 22 21 21 21 21 27 32
14 19 19 20 18 17 21 19 16 13 20 21 24 27 27 28 27 25 20 16 14 13 11 11 10 11 11 11 12 11 15 15 16 18 21 23 23 21 21 21 22 23 26 29
20 11 15 16 17 16 16 20 23 22 22 25 29 30 31 29 26 22 16 13 12 12 13 10 9 7 9 10 11 11 13 15 17 18 21 22 22 23 21 21 22 23 24 29
19 20 22 23 18 15 16 21 23 26 27 32 33 33 32 31 26 22 18 16 14 12 11 9 9 9 8 9 9 10 11 14 17 19 21 24 20 21 22 21 22 23 24 27
26 22 23 25 24 24 25 24 27 31 33 35 35 32 30 27 25 21 20 14 14 15 11 8 8 8 8 7 7 8 10 13 16 18 18 17 20 20 22 22 22 23 24 25
20 24 27 26 29 32 27 31 34 33 34 35 32 30 28 26 23 21 17 14 12 12 8 7 7 6 9 6 6 8 10 13 17 17 17 19 21 21 21 22 24 24 26 27
21 26 27 29 27 30 35 36 36 35 34 34 35 33 30 25 21 19 17 15 13 11 10 10 8 10 6 4 5 9 12 15 16 16 18 20 20 20 22 23 23 24 25 26
22 24 24 27 27 27 32 33 33 36 36 33 31 32 30 27 23 19 15 17 15 13 11 10 9 6 5 4 7 11 13 15 15 16 18 18 19 19 19 20 21 21 22 24
21 25 26 26 28 30 29 30 33 37 36 33 34 34 32 31 25 21 18 16 15 13 11 10 8 5 5 8 10 10 14 16 16 16 16 16 16 15 16 17 17 18 21 24
24 22 24 27 32 31 24 27 32 33 33 31 32 31 31 28 19 16 12 18 15 14 11 12 9 7 8 10 11 14 15 16 14 14 13 13 11 12 15 16 18 20 21 22
25 27 29 29 24 20 28 31 30 29 28 28 28 28 28 23 20 19 18 19 17 15 16 13 9 9 10 11 15 16 14 13 12 10 10 8 9 11 13 13 15 17 18 20
27 23 23 25 27 31 32 33 29 31 30 29 27 25 26 20 15 21 21 20 19 17 17 15 13 12 12 14 16 14 13 11 10 8 6 7 8 9 10 11 13 15 16 17
22 25 24 22 25 31 34 34 34 32 33 33 29 28 25 22 21 22 22 21 20 18 16 13 13 14 16 16 15 13 12 11 8 6 6 5 6 7 8 9 11 12 13 15
Wind_Direction
109 105 93 98 77 52 62 125 126 160 143 161 156 155 162 151 143 134 131 123 129 127 117 118 64 70 83 74 62 53 39 32 25 16 12 13 13 16 9 8 15 12 15 14
44 77 85 78 85 87 86 88 86 112 88 138 132 122 139 155 143 118 123 126 130 127 124 104 61 83 90 75 64 45 36 32 20 15 23 17 18 12 11 12 11 13 13 9
62 98 83 36 336 91 98 97 130 145 152 125 97 84 117 109 117 120 121 127 124 125 129 83 46 90 88 71 49 41 38 27 18 17 23 24 21 17 20 19 16 15 12 8
147 37 63 251 103 118 109 112 106 103 115 105 101 79 71 89 118 117 121 122 125 126 100 72 101 97 80 56 46 33 24 25 13 20 25 24 24 23 22 21 20 15 13 11
116 91 324 101 171 140 129 87 131 124 124 121 117 85 47 63 99 118 128 132 124 102 103 107 104 89 66 53 39 44 33 18 16 17 24 21 24 21 20 18 16 13 13 8
87 127 192 225 154 128 110 112 173 141 152 156 172 94 157 122 117 116 124 120 110 111 99 106 97 77 66 52 45 28 15 19 22 24 26 20 20 19 15 14 15 14 11 9
112 130 302 181 145 112 98 217 143 158 153 148 102 130 135 132 117 127 123 110 110 98 99 100 93 74 66 44 26 16 23 33 29 31 28 20 17 17 12 14 14 13 5 4
87 85 195 170 63 138 154 45 112 108 113 102 111 114 125 130 132 128 119 120 109 99 98 91 74 73 54 22 17 38 37 40 32 31 27 19 16 19 19 19 17 8 5 3
141 207 319 347 113 104 121 126 120 114 116 122 124 127 133 138 136 129 131 125 115 106 95 80 79 55 39 58 50 52 45 38 31 33 30 27 23 24 23 25 19 10 6 3
85 360 76 98 93 104 119 117 122 122 129 128 128 136 136 133 128 120 126 125 120 107 96 89 65 57 64 49 48 48 47 37 31 31 30 33 34 31 30 30 22 14 9 6
75 96 84 62 110 121 113 117 119 121 128 131 133 136 130 118 115 119 124 127 115 106 99 86 72 66 59 44 39 42 45 38 31 32 35 36 40 37 38 42 30 17 14 12
199 178 127 145 135 129 126 131 130 129 129 134 136 129 124 121 124 128 128 124 115 105 93 92 78 69 55 45 38 50 44 44 33 33 39 37 38 39 45 40 30 27 25 26
140 154 121 129 127 130 128 132 134 133 134 130 127 124 122 120 126 127 126 123 120 109 98 92 77 54 53 53 48 51 47 47 38 38 44 35 39 36 26 32 31 26 23 25
121 114 99 135 136 127 127 127 126 123 125 126 124 126 128 124 130 127 127 125 120 117 117 98 73 56 63 70 54 51 47 49 42 43 46 41 40 36 29 23 19 18 18 20
133 118 127 121 121 122 125 124 117 119 121 119 129 131 135 135 132 131 129 124 121 118 112 99 79 66 67 68 51 53 48 51 46 49 52 44 41 38 33 31 29 25 18 17
109 117 124 126 130 133 129 126 125 128 125 127 128 136 138 135 133 133 131 132 130 115 101 103 84 73 64 59 52 67 51 48 44 48 50 46 44 39 35 33 32 29 24 20
117 119 126 132 141 144 141 140 137 137 132 134 138 139 137 136 136 134 129 127 121 116 115 104 78 79 67 65 61 75 54 46 47 53 55 53 47 42 39 36 34 32 27 25
144 146 146 145 146 137 130 133 134 139 141 146 145 145 144 147 145 141 137 133 125 120 122 98 82 95 73 81 68 74 56 50 53 61 61 54 47 41 42 38 34 33 30 32
136 135 139 142 142 134 134 135 141 150 151 152 151 152 152 149 146 145 144 138 134 129 126 115 103 93 85 87 70 66 55 57 63 65 54 48 49 48 44 42 41 39 35 31
124 128 132 127 135 140 135 149 153 153 156 156 152 149 150 151 152 152 154 140 139 137 130 134 141 104 115 93 62 64 65 73 72 63 61 61 59 57 54 50 47 38 32 27
125 128 126 131 133 148 154 157 157 155 159 159 157 158 157 156 158 159 159 149 147 146 134 139 138 127 112 79 72 85 84 82 75 74 75 74 70 62 58 53 42 34 32 32
131 129 130 135 137 142 155 159 160 158 161 163 162 158 156 155 156 157 159 155 156 161 151 141 137 127 103 102 106 101 93 87 87 90 88 78 71 67 60 54 47 41 40 43
135 138 139 142 145 148 158 161 162 163 164 166 165 165 166 166 166 162 162 164 163 164 161 153 150 140 128 126 121 110 99 101 101 96 89 81 73 68 61 54 50 46 47 49
136 139 137 145 148 146 143 162 165 169 169 171 173 173 170 166 175 180 178 167 169 169 169 158 156 150 144 137 128 112 113 112 109 101 93 87 85 72 66 62 56 54 51 48
140 139 142 145 145 148 155 163 165 167 170 173 176 177 179 177 168 172 171 169 173 173 165 161 166 157 152 133 128 126 124 121 116 110 107 105 90 79 72 62 56 52 46 43
144 147 153 158 159 159 161 165 161 170 171 170 174 180 181 186 193 178 176 177 178 181 175 169 170 164 143 142 140 138 137 135 130 130 134 116 95 83 71 59 52 47 44 40
135 143 146 151 164 169 168 170 167 172 177 173 174 178 183 185 182 181 181 181 182 181 182 172 168 159 155 152 152 150 149 147 147 156 137 128 113 92 69 56 45 41 38 37
Height
792 791 792 799 804 807 811 814 829 838 841 847 850 854 858 861 867 873 881 887 891 893 894 894 894 894 894 893 892 890 888 886 883 880 876 872 866 860 855 849 843 838 832 827
801 794 796 809 809 813 817 820 829 836 847 843 849 854 858 861 866 876 884 889 892 894 895 895 895 895 895 894 893 891 889 887 884 880 876 872 867 861 854 848 843 837 832 827
813 802 805 824 810 815 818 821 827 844 843 847 856 858 861 865 873 880 887 892 894 895 896 896 896 897 897 896 894 892 890 888 885 881 877 873 868 861 855 849 843 837 832 827
823 818 850 816 803 807 819 828 831 837 847 854 865 873 872 874 876 885 890 894 896 896 897 898 898 898 898 897 895 893 891 889 885 881 878 874 869 863 857 851 845 839 834 828
838 840 821 814 809 816 822 838 833 844 855 861 868 869 885 885 885 887 891 894 896 898 899 900 899 899 898 898 897 895 892 890 886 883 879 875 870 865 860 854 847 841 835 829
843 834 842 817 801 802 810 847 838 836 851 856 857 872 890 890 890 891 893 896 899 900 901 901 902 900 900 899 898 896 893 890 888 884 881 877 872 867 862 856 850 843 836 829
834 841 824 801 800 799 833 843 834 839 845 852 860 866 882 889 892 893 896 899 901 902 902 904 904 902 901 901 899 898 895 892 889 886 882 878 874 869 863 857 850 843 837 831
823 838 835 798 802 816 827 835 838 845 854 863 869 876 883 889 892 896 899 902 903 903 905 906 905 904 903 902 900 899 897 894 891 887 884 880 875 870 865 859 852 845 839 833
817 821 811 805 808 816 822 832 845 847 859 862 871 879 884 889 894 897 900 903 905 905 907 908 908 907 905 904 902 901 898 896 893 889 885 881 876 871 866 861 855 849 843 837
814 819 818 816 820 823 828 835 846 852 860 866 872 880 885 891 895 899 903 905 906 907 909 910 910 909 908 907 905 902 900 898 895 891 887 882 878 874 869 865 859 854 848 842
823 825 822 828 826 829 836 843 850 857 862 868 874 881 886 892 897 901 904 907 908 909 911 912 912 911 910 908 906 904 902 899 897 893 889 885 881 876 872 869 865 860 855 849
822 812 815 829 831 832 838 847 853 858 867 873 876 881 888 894 898 902 905 908 910 912 913 914 914 913 912 910 908 905 904 901 899 895 891 888 884 880 877 873 870 865 860 854
803 810 813 825 832 835 842 850 856 861 867 873 880 884 889 896 901 904 907 910 912 914 915 916 916 915 914 913 910 908 906 904 901 897 894 890 886 882 879 875 872 868 862 857
799 808 827 828 835 839 845 853 859 865 871 876 881 887 891 897 903 906 909 912 914 915 916 917 917 916 914 914 913 911 909 906 903 900 896 893 889 886 882 878 874 870 865 861
803 804 813 827 836 844 849 855 862 869 874 881 884 888 893 899 904 908 911 914 916 917 918 919 918 918 917 916 915 913 911 908 906 902 899 896 893 889 886 883 879 876 871 864
812 815 823 830 839 846 851 859 864 873 877 883 887 892 897 901 905 910 913 916 917 919 920 921 920 920 919 918 916 915 913 911 908 905 902 899 896 893 890 888 885 881 877 872
817 830 832 837 841 847 852 859 864 872 878 883 889 894 898 903 908 912 915 918 919 920 921 922 922 921 921 920 918 917 915 913 911 907 905 903 901 898 895 893 890 887 883 879
804 814 821 826 837 847 855 862 868 873 879 884 890 894 899 904 908 913 916 918 920 921 923 923 923 922 922 921 920 918 917 915 913 911 909 907 905 904 901 898 895 892 889 884
811 819 827 833 840 846 854 862 869 874 880 885 890 895 901 905 910 914 917 919 920 921 923 924 924 924 923 922 921 920 919 917 916 914 913 912 910 909 906 903 900 897 893 889
817 822 829 835 842 847 856 863 869 875 881 887 892 898 903 908 911 914 917 919 921 922 923 923 924 925 924 924 923 921 920 919 918 918 918 917 915 913 911 908 905 902 898 894
818 825 831 838 846 852 856 863 868 875 882 888 892 897 902 908 912 914 917 919 922 923 923 923 924 925 926 925 924 923 922 921 922 922 922 921 919 918 915 913 910 907 904 900
822 828 836 842 848 855 860 865 870 876 882 888 894 898 903 908 912 916 918 919 921 924 924 925 925 926 926 926 926 925 924 925 926 926 925 924 923 921 919 917 914 912 909 906
826 831 837 844 849 855 863 867 872 876 882 887 892 897 901 905 910 913 917 920 922 924 925 925 926 927 927 927 927 927 927 928 929 929 928 928 926 925 923 921 919 916 914 911
829 835 840 847 852 858 864 870 874 879 884 889 893 897 901 905 911 914 916 919 922 924 925 926 926 926 927 928 928 929 930 931 931 931 931 931 929 927 926 924 922 920 918 915
829 836 841 848 854 860 864 870 876 881 886 891 895 899 903 906 908 912 915 918 921 922 924 926 926 927 927 928 930 931 932 933 933 934 933 932 931 930 929 928 926 924 922 919
831 837 843 847 851 857 862 868 873 880 885 890 895 899 903 906 908 911 914 917 920 922 924 925 927 927 928 930 931 933 934 935 935 935 935 934 933 932 932 931 929 927 925 922
835 839 845 851 856 859 862 866 871 877 883 887 891 897 901 904 907 910 913 916 919 921 923 924 926 927 929 931 933 934 935 936 936 936 936 936 935 935 934 932 931 929 927 925